Temp
19 20 20 20 20 20 20 20 20 19 19 19 19 19 19 19 19 19 19 19 19 19 19 19 19 19 19 18 19 19 19 19 20 19 19 19 19 19 19 19 19 18 19
19 19 19 19 19 20 19 19 19 19 19 19 19 19 19 19 19 19 19 19 19 19 19 19 19 19 19 18 19 19 19 19 19 19 19 19 19 19 19 19 18 18 18
21 19 19 19 19 19 19 19 19 19 19 19 19 19 19 19 19 19 19 19 19 19 19 19 19 19 19 19 19 19 19 19 19 19 19 19 19 19 19 20 19 18 18
20 19 19 19 19 19 19 19 19 19 19 19 19 19 19 19 19 19 19 19 19 19 19 19 19 19 19 19 18 19 18 19 19 19 19 20 19 18 19 19 20 19 18
19 19 19 19 19 19 19 19 19 19 19 19 19 19 19 19 18 19 19 19 19 19 19 19 19 19 19 19 19 19 18 18 19 19 19 19 19 19 19 19 19 19 18
19 19 19 19 19 19 19 19 19 19 19 19 19 19 19 19 19 19 19 19 19 18 18 19 19 19 19 19 19 19 18 18 18 19 19 19 19 19 19 19 19 19 18
18 18 18 18 18 18 18 18 19 19 19 19 19 19 19 19 19 19 18 18 18 18 18 18 18 18 19 19 19 19 19 18 18 19 19 20 19 19 20 20 19 19 18
18 18 17 17 17 17 17 17 17 18 18 18 18 18 18 19 19 19 19 18 18 18 18 18 18 18 18 18 18 18 18 18 18 18 19 19 20 19 19 19 19 19 18
18 18 17 17 17 17 17 16 17 16 16 17 17 17 17 17 18 18 18 18 18 18 18 18 18 18 18 18 18 19 19 19 18 18 18 19 19 19 19 19 19 19 18
17 17 17 17 17 17 16 16 16 16 16 16 16 16 16 16 17 17 18 17 18 18 18 18 19 19 19 18 18 18 19 19 18 18 18 19 19 19 19 19 19 19 18
17 16 16 16 16 16 16 16 16 15 15 16 15 15 16 16 16 17 17 17 17 18 18 18 18 18 18 18 19 18 18 18 19 18 18 19 19 19 19 19 18 19 18
16 16 16 16 16 16 15 15 15 15 15 15 15 15 15 15 15 15 16 16 16 17 17 17 17 17 17 17 17 18 18 18 18 19 19 19 19 19 18 18 18 18 18
16 16 15 15 15 15 15 14 14 14 14 14 14 14 14 14 14 14 15 15 15 15 16 16 16 16 16 16 17 17 17 17 18 18 18 18 19 18 18 18 18 18 18
16 15 15 15 14 14 14 13 13 13 13 13 13 14 13 13 13 13 14 14 14 14 15 15 15 15 15 16 16 16 17 17 17 17 18 18 18 18 19 18 17 17 18
16 15 15 14 14 13 13 13 13 13 13 13 13 13 13 12 12 12 12 12 12 13 13 13 13 13 14 14 14 14 15 15 16 16 16 17 17 18 18 18 18 17 17
16 15 14 14 13 13 13 13 13 13 13 13 13 12 12 11 11 12 12 11 12 12 12 12 12 12 13 13 13 14 14 14 15 15 16 16 16 16 17 17 17 17 17
16 15 14 14 13 13 13 13 13 13 12 12 12 11 11 11 11 11 11 11 11 11 11 11 11 11 11 12 12 13 13 13 14 14 15 15 16 16 16 17 17 17 16
15 15 14 13 13 13 13 12 12 12 12 11 11 10 10 10 10 10 10 10 10 10 10 9 9 9 10 10 10 11 12 12 13 14 14 14 14 14 14 15 15 16 16
16 14 13 13 13 13 12 12 12 12 12 11 11 10 10 10 10 10 10 9 9 9 9 9 9 9 9 8 9 10 11 12 12 12 13 13 13 13 13 14 15 15 16
15 14 13 13 12 12 12 12 12 12 11 11 11 10 10 10 10 10 9 9 9 9 8 8 8 8 8 8 9 10 12 12 11 12 12 12 12 12 11 11 12 12 12
14 14 13 13 12 12 11 12 12 11 11 11 11 10 10 10 9 9 9 9 9 9 8 8 7 7 7 7 7 8 11 12 12 12 11 11 12 11 11 10 9 8 9
14 14 13 12 12 11 11 11 11 11 11 10 10 10 9 9 9 9 9 9 8 8 8 7 7 6 6 6 6 7 8 10 11 11 11 10 10 10 10 8 8 8 8
14 13 13 12 12 11 11 11 10 10 10 10 10 10 9 9 9 9 9 8 8 7 7 7 6 6 5 6 6 6 7 8 7 10 10 9 8 8 8 7 6 7 7
14 13 13 12 12 11 11 11 10 11 10 10 10 10 10 9 9 9 9 9 8 7 6 6 6 6 5 5 5 5 6 5 7 8 9 8 7 7 7 7 6 6 7
14 14 13 13 12 11 11 11 10 10 10 10 10 10 9 9 9 8 8 8 7 7 6 6 5 5 5 5 5 4 5 5 4 4 5 6 7 7 6 6 5 6 6
14 14 14 13 12 11 11 11 11 10 10 10 10 9 9 9 9 8 8 8 7 7 6 5 5 5 5 5 5 4 4 4 3 3 3 4 4 6 6 5 5 5 5
Height
841 839 839 838 838 837 837 837 837 837 836 836 835 835 834 834 833 833 832 831 830 830 829 829 829 828 828 828 827 827 826 826 825 825 825 825 825 825 825 824 824 824 824
840 840 839 839 838 838 838 837 837 837 837 836 836 835 834 834 833 832 832 831 830 830 829 829 828 828 827 827 827 826 826 825 825 825 825 825 825 825 825 824 824 824 824
840 841 840 839 838 838 838 838 837 837 837 836 835 835 834 833 832 832 831 830 830 829 828 828 827 827 827 826 826 825 825 825 824 824 824 824 825 825 825 824 824 824 823
841 841 841 840 839 838 838 838 837 837 836 835 835 834 833 833 832 831 830 830 829 828 828 827 827 826 826 826 825 825 825 824 824 824 824 824 824 824 824 824 824 824 823
841 841 841 841 840 839 838 838 838 837 836 835 834 833 832 832 831 830 829 829 828 828 827 827 826 825 825 824 824 823 823 823 823 823 822 823 823 823 822 823 823 823 823
842 842 842 842 841 840 839 838 837 837 836 835 834 833 832 831 830 829 828 827 827 826 826 825 824 824 823 822 821 821 821 821 821 821 821 821 821 821 822 821 822 822 822
841 842 842 842 841 840 840 838 837 836 834 833 833 832 831 830 829 828 827 826 825 824 824 823 823 822 821 820 820 819 819 818 819 818 819 819 819 820 820 819 820 820 820
841 842 842 841 840 840 839 838 837 835 834 832 831 830 829 828 828 827 826 825 824 823 822 822 821 820 819 819 818 817 817 816 816 816 816 816 816 817 818 817 817 817 818
841 841 841 841 840 839 838 837 837 835 833 832 831 829 828 827 826 825 824 823 822 822 821 820 819 818 817 816 815 815 814 814 814 813 813 813 813 813 814 814 814 814 815
841 840 841 840 839 839 838 837 835 834 833 832 830 828 827 826 825 824 823 822 821 820 819 817 816 815 815 814 813 812 812 812 811 810 810 810 810 810 810 811 810 811 812
841 841 840 839 838 838 837 836 834 833 832 831 830 828 827 825 824 822 822 821 819 818 817 816 815 813 812 811 810 809 809 808 807 807 807 806 806 806 807 808 808 807 808
840 840 840 839 838 837 836 834 833 832 831 831 829 828 826 825 823 822 821 819 818 817 815 814 812 811 810 808 807 806 806 806 805 804 803 803 802 802 803 804 804 804 804
839 840 840 839 837 836 835 834 833 832 831 831 829 827 826 824 823 822 820 819 817 815 814 812 810 809 808 807 805 804 803 803 802 801 801 800 800 800 800 799 799 799 799
838 839 839 839 837 836 835 834 832 831 831 829 828 827 826 824 822 821 820 819 817 815 813 811 809 807 806 804 803 801 800 799 798 798 797 797 796 796 796 795 794 793 793
837 838 838 838 837 836 835 834 832 831 830 829 828 827 825 824 822 821 820 819 816 815 813 811 809 807 805 803 801 800 798 796 795 794 794 793 792 791 790 790 789 789 788
836 838 837 837 836 835 834 833 832 831 830 829 827 826 825 824 822 821 820 818 816 814 813 810 809 807 805 803 800 798 796 795 793 792 791 789 788 788 787 786 784 784 784
835 836 837 836 835 835 834 833 832 831 830 829 827 826 825 824 822 821 820 818 816 814 812 810 808 806 804 802 799 796 794 792 791 789 788 786 785 784 784 782 781 780 779
833 834 835 835 834 834 833 832 832 831 830 829 828 827 826 824 822 821 820 818 816 814 812 810 809 806 803 801 798 794 792 790 789 788 786 785 783 782 780 778 776 774 773
830 832 834 834 834 833 832 831 831 831 830 829 828 827 825 824 822 821 820 818 816 814 812 811 809 807 804 801 797 794 791 789 787 787 785 783 781 780 777 775 772 770 768
828 831 833 833 833 833 832 831 830 830 829 828 827 826 825 823 822 821 819 818 816 814 812 810 809 807 805 801 796 793 790 789 788 787 784 784 781 778 775 771 767 764 763
826 828 830 831 832 832 831 830 830 829 829 828 826 826 824 823 822 821 819 817 815 814 812 810 809 807 804 801 796 791 788 788 787 785 785 783 780 777 774 770 767 764 761
826 827 828 829 830 830 830 829 828 828 827 826 825 825 824 823 822 820 818 816 815 813 811 810 808 807 806 804 802 798 795 788 783 786 785 783 781 779 776 772 769 766 762
825 826 827 828 828 828 828 828 827 826 825 825 824 823 822 822 820 819 818 816 815 813 811 809 808 807 806 805 804 804 801 799 794 786 786 784 782 780 778 776 772 767 763
823 826 826 826 825 825 825 825 824 824 823 822 821 821 820 819 818 816 815 813 812 811 810 809 807 806 805 804 804 804 804 804 800 792 786 784 784 782 779 777 775 770 765
823 823 823 823 823 822 822 822 821 820 820 819 819 818 818 817 816 815 814 813 812 810 810 809 808 807 806 805 804 803 803 802 801 800 792 786 785 782 780 777 775 772 767
821 821 820 820 819 820 819 819 818 817 817 817 816 815 815 814 814 813 812 811 810 808 807 806 806 805 804 803 802 801 800 800 800 800 797 792 787 781 779 777 774 771 769
Wind_Speed
12 10 9 9 9 9 8 7 6 6 5 6 5 5 6 6 6 7 7 7 6 5 3 4 5 5 5 5 5 5 5 4 2 0 1 1 1 1 2 2 2 3 3
12 11 9 10 9 9 9 8 7 6 5 5 6 5 4 5 5 5 6 6 6 5 4 3 4 4 5 5 5 6 5 5 4 3 4 3 2 2 2 1 3 2 2
6 10 11 10 9 9 8 7 7 7 6 6 5 5 4 5 5 5 6 5 5 5 5 5 5 6 6 6 7 7 7 6 6 5 5 6 5 4 4 4 4 2 3
9 11 11 10 9 9 8 7 6 6 6 5 5 5 5 6 6 6 6 6 6 6 6 7 7 8 8 7 9 10 10 8 8 7 7 7 7 9 8 6 6 6 6
11 10 10 9 9 8 8 7 7 6 6 6 6 6 6 6 7 7 7 7 7 8 9 9 9 9 9 10 11 11 11 11 10 9 8 8 8 13 10 8 6 7 8
12 10 10 9 9 9 9 8 8 8 8 8 8 8 8 8 7 8 8 9 9 10 10 10 10 10 11 11 11 11 11 11 11 11 10 10 9 11 10 11 9 8 9
12 9 10 10 10 10 10 10 10 9 9 9 10 10 10 10 9 9 9 10 10 11 11 11 12 12 13 12 12 12 11 12 13 13 12 13 11 13 15 15 14 13 12
10 8 6 7 8 8 10 12 13 12 12 11 11 11 11 12 12 11 10 10 11 11 12 13 13 14 14 15 14 14 14 14 16 17 16 14 16 15 16 16 15 15 14
7 6 5 5 4 6 9 10 12 12 13 12 11 12 12 11 11 7 9 10 11 11 14 15 16 16 16 16 16 16 16 17 18 19 20 20 18 17 17 19 19 18 16
6 5 5 5 6 6 5 8 9 9 10 9 11 10 11 10 9 9 9 12 14 13 13 13 15 16 17 17 18 18 18 19 21 21 22 23 23 23 19 22 22 19 17
5 5 5 7 8 8 7 9 8 7 8 8 9 10 10 9 9 9 8 10 12 11 12 13 15 14 13 15 18 19 19 19 20 23 23 23 24 24 24 21 24 24 21
5 3 6 8 9 10 10 8 8 7 10 8 10 10 11 10 11 10 8 11 12 11 11 11 11 11 12 14 15 15 15 16 19 20 22 21 23 23 23 24 27 29 27
4 1 5 7 9 10 10 9 8 7 7 9 9 9 9 10 10 9 9 10 11 11 11 11 12 12 14 16 17 17 17 16 16 17 20 22 21 20 23 26 26 30 31
7 1 4 7 8 10 10 10 9 9 8 8 6 8 9 10 11 11 11 11 13 13 14 15 15 16 16 17 18 19 20 20 19 19 18 19 20 24 25 24 27 28 32
8 1 3 6 8 8 9 9 8 9 5 6 7 9 9 11 12 12 12 13 12 13 14 14 14 14 16 17 17 18 20 21 21 21 21 20 19 19 22 25 26 27 29
5 1 2 6 6 6 6 7 6 5 6 8 9 7 8 10 12 12 11 13 13 16 16 14 14 16 16 17 18 17 17 18 19 20 22 23 23 24 23 23 21 22 26
6 2 1 4 4 5 4 4 4 4 6 9 8 9 10 10 12 11 10 12 15 16 14 12 13 15 16 18 19 19 18 19 17 18 21 20 21 21 21 24 27 27 23
8 3 3 4 4 5 3 2 2 3 3 8 7 8 8 9 10 9 10 13 14 16 17 16 18 20 20 19 21 20 20 20 17 16 20 20 21 22 21 21 23 24 25
8 6 4 5 5 5 2 1 2 1 2 5 6 7 7 9 9 9 8 9 12 13 16 15 17 20 18 21 23 18 20 14 14 15 18 14 12 14 17 20 21 22 23
10 5 5 5 5 6 3 2 3 2 2 3 6 7 8 9 9 9 9 9 11 11 13 15 17 18 16 20 17 17 13 15 10 17 18 17 20 23 20 21 22 17 17
9 7 6 6 5 5 4 3 2 2 1 2 7 6 7 8 8 9 9 9 10 11 11 13 14 17 15 22 13 14 13 7 17 20 14 20 22 23 24 23 23 23 18
9 9 8 6 5 5 5 4 3 4 3 4 5 6 7 7 8 9 10 10 10 10 10 12 13 14 8 17 8 9 4 6 14 7 14 18 20 22 22 20 22 19 18
10 10 9 7 7 7 7 6 5 5 5 6 5 6 7 7 9 9 9 9 9 9 10 11 12 12 10 9 8 4 3 3 12 5 12 14 22 16 18 18 20 21 20
10 10 9 10 10 9 9 8 8 7 7 6 8 8 7 8 8 8 8 8 8 8 9 9 8 8 7 6 3 4 2 3 2 5 8 11 23 11 14 16 21 23 22
11 11 12 12 13 12 12 11 11 11 10 9 10 10 9 10 10 10 9 9 9 8 9 9 9 8 8 7 6 6 3 6 5 2 4 9 14 11 10 13 19 23 24
9 12 15 15 16 15 15 15 15 14 13 13 13 13 13 12 11 11 10 10 9 8 8 7 7 5 5 5 6 5 3 1 3 2 2 6 10 7 15 7 17 22 24
Wind_Direction
65 79 78 77 75 73 69 66 63 60 55 40 39 20 19 25 23 21 20 21 24 26 21 18 349 358 358 356 352 355 348 340 334 256 52 102 124 94 107 107 8 120 94
87 88 79 79 75 72 69 64 56 46 40 39 31 21 1 359 357 359 2 5 5 0 354 332 321 341 318 317 323 333 330 324 314 265 242 236 275 275 207 152 83 146 117
89 92 84 81 79 75 70 63 57 44 33 27 16 6 3 352 351 342 334 334 338 338 331 317 314 308 305 300 297 306 310 305 299 285 258 254 247 260 243 227 214 188 173
105 97 86 79 76 73 66 58 49 38 31 24 9 354 345 340 334 327 316 314 307 304 312 311 307 303 305 303 297 294 298 300 293 281 269 256 252 254 251 244 247 238 231
93 90 82 77 69 63 56 48 39 30 21 15 8 356 347 342 328 320 313 307 305 305 310 310 306 305 305 299 294 292 288 287 296 285 270 262 269 255 245 244 256 246 245
83 72 69 62 55 48 38 27 17 6 359 351 344 339 336 339 334 324 316 310 307 303 304 303 302 303 301 299 296 295 278 279 286 286 272 266 293 250 251 257 265 259 253
89 73 61 52 46 39 27 16 5 357 348 338 331 327 324 323 319 317 316 315 307 304 302 301 301 297 293 293 291 290 278 271 269 275 272 256 263 267 262 268 263 264 250
121 103 72 62 49 42 24 10 3 1 358 353 345 338 333 326 322 322 324 321 310 306 306 303 296 292 292 291 289 288 284 275 269 269 270 264 254 267 256 252 258 265 254
105 89 70 50 46 27 24 356 353 5 7 5 357 353 350 358 349 334 336 323 322 317 312 310 305 302 298 295 292 287 282 280 273 270 268 267 260 257 262 244 259 262 255
82 63 43 27 19 25 25 344 358 15 7 1 359 354 348 346 350 341 340 325 316 318 320 318 314 310 305 302 301 294 288 283 274 273 271 268 267 261 265 250 251 255 248
81 38 19 17 14 14 1 0 12 20 6 12 8 350 345 339 336 332 332 344 340 325 331 329 334 329 317 316 312 310 299 287 285 277 274 279 280 271 260 256 251 258 256
111 33 4 6 6 6 6 9 14 17 11 14 6 357 358 358 349 343 339 355 356 356 356 357 344 335 342 339 334 333 331 320 303 299 280 282 291 282 270 261 258 264 266
151 354 353 1 2 2 8 9 11 13 19 21 14 352 8 11 4 2 2 5 1 352 345 337 331 329 327 328 325 321 322 327 335 333 300 289 286 282 277 267 266 262 264
145 91 352 356 358 3 8 9 15 11 14 11 30 355 354 360 357 357 350 349 350 344 333 330 329 325 320 320 320 316 313 314 318 319 317 317 312 298 290 284 274 270 265
140 130 348 346 356 7 5 11 23 11 16 360 344 350 0 9 2 356 6 7 352 337 336 333 334 332 334 333 327 327 320 313 309 313 318 314 316 310 308 301 289 279 271
158 165 309 336 1 3 6 13 28 5 360 347 338 4 20 4 353 357 5 3 343 337 333 331 335 333 331 328 326 325 326 331 326 315 310 311 312 309 307 309 310 300 283
171 189 282 332 339 340 356 29 36 359 360 11 35 26 13 2 1 12 8 352 348 344 340 347 352 348 346 343 336 334 330 326 327 323 322 323 321 321 323 318 310 303 302
160 187 279 301 310 329 335 15 356 343 16 11 24 3 9 5 13 24 22 15 4 6 11 16 4 357 357 355 344 337 328 325 324 334 337 335 333 328 325 325 315 307 301
195 218 241 295 306 327 335 341 347 346 346 353 339 358 9 9 14 17 13 14 4 3 11 12 2 3 3 354 343 340 338 359 11 8 14 23 16 357 350 334 312 302 301
194 213 254 281 291 317 303 281 244 211 55 334 346 360 2 6 9 12 14 9 6 5 9 3 6 6 7 352 347 338 354 3 26 28 29 25 12 4 355 355 355 337 317
195 218 236 259 269 295 300 304 231 114 19 307 329 342 354 357 5 1 5 3 3 5 359 357 1 4 12 2 359 348 354 22 21 32 39 18 9 9 8 10 8 3 353
210 227 227 253 262 273 277 267 259 249 253 288 303 333 346 343 348 353 355 357 354 353 351 358 3 4 6 9 354 318 348 332 342 35 19 11 11 12 18 27 26 21 14
220 222 241 244 253 262 263 260 243 237 246 247 241 304 318 322 330 341 347 348 350 350 349 350 354 5 2 4 26 29 350 336 337 319 353 10 11 7 16 17 24 28 27
234 234 239 251 255 255 254 248 241 243 241 244 250 281 288 298 309 317 322 329 334 340 345 347 340 345 346 354 24 349 308 300 305 312 332 346 356 353 5 20 19 16 16
234 233 248 257 254 251 250 250 243 245 248 253 262 266 270 276 290 301 312 327 330 327 332 337 340 341 340 337 348 340 303 318 141 289 298 329 341 325 338 15 17 13 9
240 246 258 258 255 254 254 251 248 250 249 250 254 255 259 265 272 279 291 306 313 315 317 323 326 319 320 316 316 321 325 272 299 277 296 318 310 315 309 358 17 14 10